• Join FlightAware (Why Join?)
  • Login
  • US Flag 
03:33AM EDT


 

Airport Tracker/Info


-or-


 

Live Flight TrackerFlight Track Log ✈ EJA727 ✈ 25-Jul-2014 ✈ KJZI - KILM

Flight Track Log - Related Links

Times and Time Zones

All times are in EDT time to prevent confusion due to time zone crossing. See the EJA727 flight status page for this flight to view local times or setup timezone preferences in your user account.

Time Position Orientation Groundspeed Altitude Reporting Facility
EDT Latitude Longitude Course Direction KTS MPH feet Rate Location/Type
11:29AM 32.7800 -79.9722 54° Northeast 267 307 4,800  Level Jacksonville Center
11:30AM 32.8239 -79.8867 59° Northeast 315 362 9,700 2,580 Climbing Jacksonville Center
11:31AM 32.8842 -79.7906 53° Northeast 362 417 10,000 720 Climbing Jacksonville Center
11:32AM 32.9464 -79.6919 53° Northeast 367 422 11,200 2,700 Climbing Jacksonville Center
11:33AM 33.0106 -79.5931 52° Northeast 373 429 15,400 2,820 Climbing Jacksonville Center
11:34AM 33.0961 -79.7288 54° Northeast  Level FlightAware Approximate
11:34AM 33.0767 -79.4864 53° Northeast 379 436 16,900  Level Jacksonville Center
11:35AM 33.1489 -79.3747 52° Northeast 399 459 17,000  Climbing Jacksonville Center
11:36AM 33.2231 -79.2650 51° Northeast 410 472 17,000  Level Jacksonville Center
11:37AM 33.2947 -79.1528 53° Northeast 421 484 17,000 1,440 Level Jacksonville Center
11:38AM 33.3686 -79.0403 52° Northeast 421 484 19,900 2,820 Climbing Jacksonville Center
11:39AM 33.4533 -78.9494 42° Northeast 426 490 22,700 1,440 Climbing Jacksonville Center
11:40AM 33.5461 -78.8406 44° Northeast 423 487 22,800 -1,260 Climbing Jacksonville Center
11:41AM 33.6383 -78.7317 44° Northeast 447 514 20,200 -2,520 Descending Jacksonville Center
11:42AM 33.7225 -78.6253 46° Northeast 452 520 17,800 -3,000 Descending Jacksonville Center
11:43AM 33.8006 -78.5239 47° Northeast 439 505 14,300 -3,300 Descending Jacksonville Center
11:44AM 33.8722 -78.4303 47° Northeast 407 468 11,200 -1,800 Descending Jacksonville Center
11:45AM 33.9275 -78.3550 48° Northeast 371 427 10,900 -180 Descending Washington Center
11:46AM 33.9931 -78.2694 47° Northeast 353 406 10,900 -360 Level Washington Center
11:47AM 34.0547 -78.1897 47° Northeast 279 321 10,200 -1,800 Descending Washington Center
11:48AM 34.1086 -78.1183 48° Northeast 281 323 7,200 -2,640 Descending Washington Center
11:49AM 34.1350 -78.0378 68° East 268 308 4,700 -2,040 Descending Washington Center
11:51AM 34.1114 -77.9764 115° Southeast 242 278 3,000 -900 Descending Washington Center
11:52AM 34.0689 -78.0131 216° Southwest 240 276 2,900 -300 Descending Washington Center
11:53AM 34.1169 -78.0467 330° Northwest 234 269 2,500 -660 Descending Washington Center
11:54AM 34.1692 -78.0353 10° North 212 244 1,600 -480 Descending Washington Center
11:55AM 34.2081 -77.9844 47° Northeast 183 211 1,500 -420 Descending Washington Center
11:56AM 34.2372 -77.9444 49° Northeast 170 196 800 -660 Descending Washington Center
11:57AM 34.2658 -77.9050 49° Northeast 156 180 200 -600 Descending Washington Center